LU1MQF-13 Weather Reports


time (UTC)temp
C
wind
direction
speed
KPH
gust
KPH
rain 1hr
cm
rain 24hr
cm
rain mn
cm
humidity
%
barometer
mb
20260507152713 20 0 0.0 0.0 0.00 0.00 0.00 23 936.8
20260507151212 18 0 0.0 0.0 0.00 0.00 0.00 21 937.2
20260507145713 18 0 0.0 0.0 0.00 0.00 0.00 22 937.7
20260507144213 18 0 0.0 0.0 0.00 0.00 0.00 24 937.9
20260507142713 18 0 0.0 0.0 0.00 0.00 0.00 27 937.3
20260507141212 18 0 0.0 0.0 0.00 0.00 0.00 30 937.4
20260507135713 17 0 0.0 0.0 0.00 0.00 0.00 27 937.5
20260507134213 17 0 0.0 0.0 0.00 0.00 0.00 31 938.0
20260507132712 17 0 0.0 0.0 0.00 0.00 0.00 27 938.3
20260507131213 17 0 0.0 0.0 0.00 0.00 0.00 27 938.3
20260507125712 17 0 0.0 0.0 0.00 0.00 0.00 29 938.1
20260507124213 17 0 0.0 0.0 0.00 0.00 0.00 31 937.9
20260507122713 16 0 0.0 0.0 0.00 0.00 0.00 32 937.8
20260507121213 16 0 0.0 0.0 0.00 0.00 0.00 33 937.8
20260507115713 16 0 0.0 0.0 0.00 0.00 0.00 29 937.6
20260507114213 16 0 0.0 0.0 0.00 0.00 0.00 32 937.5
20260507112712 16 0 0.0 0.0 0.00 0.00 0.00 32 937.5
20260507111213 16 0 0.0 0.0 0.00 0.00 0.00 32 937.2
20260507105713 16 0 0.0 0.0 0.00 0.00 0.00 34 937.1
20260507104212 16 0 0.0 0.0 0.00 0.00 0.00 38 937.1
20260507102713 15 0 0.0 0.0 0.00 0.00 0.00 31 937.2
20260507101212 16 0 0.0 0.0 0.00 0.00 0.00 30 937.3
20260507095712 16 0 0.0 0.0 0.00 0.00 0.00 30 937.2
20260507094212 16 0 0.0 0.0 0.00 0.00 0.00 30 937.3
20260507092712 16 0 0.0 0.0 0.00 0.00 0.00 30 937.1
20260507091212 16 0 0.0 0.0 0.00 0.00 0.00 30 937.0
20260507085712 16 0 0.0 0.0 0.00 0.00 0.00 30 937.0
20260507084213 16 0 0.0 0.0 0.00 0.00 0.00 30 937.0
20260507082712 16 0 0.0 0.0 0.00 0.00 0.00 30 936.8
20260507081211 17 0 0.0 0.0 0.00 0.00 0.00 30 936.7
20260507075712 17 0 0.0 0.0 0.00 0.00 0.00 30 936.1
20260507074212 17 0 0.0 0.0 0.00 0.00 0.00 31 936.0
20260507072712 17 0 0.0 0.0 0.00 0.00 0.00 31 935.6
20260507071211 17 0 0.0 0.0 0.00 0.00 0.00 31 935.5
20260507065712 17 0 0.0 0.0 0.00 0.00 0.00 31 935.1
20260507064212 17 0 0.0 0.0 0.00 0.00 0.00 32 935.1
20260507062712 17 0 0.0 0.0 0.00 0.00 0.00 31 935.4
20260507061212 17 0 0.0 0.0 0.00 0.00 0.00 30 935.4
20260507055711 17 0 0.0 0.0 0.00 0.00 0.00 30 935.3
20260507054212 17 0 0.0 0.0 0.00 0.00 0.00 31 934.8
20260507052712 17 0 0.0 0.0 0.00 0.00 0.00 32 934.4
20260507051212 17 0 0.0 0.0 0.00 0.00 0.00 33 934.3
20260507045712 17 0 0.0 0.0 0.00 0.00 0.00 33 933.9
20260507044212 17 0 0.0 0.0 0.00 0.00 0.00 34 933.6
20260507042712 17 0 0.0 0.0 0.00 0.00 0.00 35 933.1
20260507041212 17 0 0.0 0.0 0.00 0.00 0.00 37 932.9
20260507035711 18 0 0.0 0.0 0.00 0.00 0.00 40 932.7
20260507034211 17 0 0.0 0.0 0.00 0.00 0.00 34 932.0
20260507032712 17 0 0.0 0.0 0.00 0.00 0.00 34 932.1
20260507031211 17 0 0.0 0.0 0.00 0.00 0.00 35 932.1
20260507025712 17 0 0.0 0.0 0.00 0.00 0.00 36 932.0
20260507024212 17 0 0.0 0.0 0.00 0.00 0.00 37 931.9
20260507022711 17 0 0.0 0.0 0.00 0.00 0.00 39 931.9
20260507021212 17 0 0.0 0.0 0.00 0.00 0.00 41 932.1
20260507015712 17 0 0.0 0.0 0.00 0.00 0.00 46 932.4
20260507014211 17 0 0.0 0.0 0.00 0.00 0.00 40 931.9
20260507012712 17 0 0.0 0.0 0.00 0.00 0.00 41 931.6
20260507011211 17 0 0.0 0.0 0.00 0.00 0.00 42 931.3
20260507005711 18 0 0.0 0.0 0.00 0.00 0.00 43 931.2
20260507004212 18 0 0.0 0.0 0.00 0.00 0.00 44 930.9
20260507002711 18 0 0.0 0.0 0.00 0.00 0.00 44 931.0
20260507001212 20 0 0.0 0.0 0.00 0.00 0.00 50 931.1
20260506235712 18 0 0.0 0.0 0.00 0.00 0.00 50 931.1
20260506234211 18 0 0.0 0.0 0.00 0.00 0.00 50 931.1
20260506232712 18 0 0.0 0.0 0.00 0.00 0.00 49 931.4
20260506231211 18 0 0.0 0.0 0.00 0.00 0.00 39 931.2
20260506225711 18 0 0.0 0.0 0.00 0.00 0.00 39 931.7
20260506224212 18 0 0.0 0.0 0.00 0.00 0.00 39 931.2
20260506222711 18 0 0.0 0.0 0.00 0.00 0.00 38 931.0
20260506221211 18 0 0.0 0.0 0.00 0.00 0.00 39 930.9
20260506215711 18 0 0.0 0.0 0.00 0.00 0.00 39 930.7
20260506214210 20 0 0.0 0.0 0.00 0.00 0.00 39 930.7
20260506212711 20 0 0.0 0.0 0.00 0.00 0.00 39 930.3
20260506211211 21 0 0.0 0.0 0.00 0.00 0.00 38 930.6
20260506205711 21 0 0.0 0.0 0.00 0.00 0.00 37 930.7
20260506204211 21 0 0.0 0.0 0.00 0.00 0.00 37 930.4
20260506202711 21 0 0.0 0.0 0.00 0.00 0.00 35 929.6
20260506201211 22 0 0.0 0.0 0.00 0.00 0.00 33 928.8
20260506195711 22 0 0.0 0.0 0.00 0.00 0.00 33 929.0
20260506194211 22 0 0.0 0.0 0.00 0.00 0.00 30 929.7
20260506192711 22 0 0.0 0.0 0.00 0.00 0.00 29 929.4
20260506191211 22 0 0.0 0.0 0.00 0.00 0.00 29 929.3
20260506185711 23 0 0.0 0.0 0.00 0.00 0.00 28 929.4
20260506184210 23 0 0.0 0.0 0.00 0.00 0.00 28 929.0
20260506182711 23 0 0.0 0.0 0.00 0.00 0.00 30 928.5
20260506181211 22 0 0.0 0.0 0.00 0.00 0.00 32 927.7
20260506175711 23 0 0.0 0.0 0.00 0.00 0.00 42 928.3
20260506174211 23 0 0.0 0.0 0.00 0.00 0.00 43 928.4
20260506172711 23 0 0.0 0.0 0.00 0.00 0.00 43 928.4
20260506171211 23 0 0.0 0.0 0.00 0.00 0.00 43 928.2
20260506165710 23 0 0.0 0.0 0.00 0.00 0.00 42 928.0
20260506164211 23 0 0.0 0.0 0.00 0.00 0.00 43 927.9
20260506162710 23 0 0.0 0.0 0.00 0.00 0.00 44 928.2
20260506161210 22 0 0.0 0.0 0.00 0.00 0.00 45 928.3
20260506155710 22 0 0.0 0.0 0.00 0.00 0.00 47 928.3
20260506154211 22 0 0.0 0.0 0.00 0.00 0.00 48 928.6